[[{"header":{"parameterUnit":"m.s-1","parameterCategory":1,"la1":30.2991,"la2":30.254,"lo1":-89.0895,"lo2":-89.0444,"dy":0.0017,"dx":0.0017,"nx":28,"ny":28,"refTime":"2024-02-11T09:00:00:Z","depth":0,"parameterNumber":2,"parameterNumberName":"U-component_of_WINDS"},"data":[0,0,0,0,0,0,0,0,0,0,0,0,0,0,0,0,0,0,0,0,0,0,0,0,0,0,0,0,0,0,0,0,0,0,0,0,0,0,0,0,0,0,0,0,0,0,0,0,0,0,0,0,0,0,0,0,0,0,5.2618,5.2619,0,5.2743,5.2744,5.2746,5.2714,5.2712,5.2709,5.2707,5.2835,5.284,5.2846,0,0,0,0,0,0,0,0,0,0,0,0,0,5.2352,5.2357,5.2618,5.2619,5.2621,5.2743,5.2744,5.2746,5.2715,5.2712,5.2709,5.2706,5.2833,5.284,5.2846,0,0,0,0,0,0,0,0,0,0,0,0,0,5.2471,5.2358,5.2617,5.262,5.2621,5.2742,5.2745,5.2747,5.2715,5.2711,5.2708,5.2704,5.2831,5.2839,5.2847,5.2974,0,0,5.2873,5.2877,0,0,0,0,0,0,0,0,5.2464,5.2481,5.2618,5.262,5.2622,5.2709,5.2698,5.2823,5.2716,5.268,5.2707,5.2703,5.2796,5.2807,5.2839,5.298,5.2985,5.2874,5.2879,5.2883,5.2885,0,0,0,0,0,0,0,5.2456,5.2475,5.2667,5.262,5.2622,5.2615,5.2628,5.2721,5.2757,5.2682,5.268,5.2696,5.2796,5.283,5.2841,5.2987,5.2874,5.2882,5.2887,5.289,5.3239,5.3243,0,0,0,0,0,0,5.2446,5.2469,5.2663,5.2671,5.2532,5.2623,5.2637,5.2685,5.2756,5.2763,5.2699,5.2694,5.2818,5.2831,5.2846,5.2999,5.2883,5.2891,5.2896,5.3235,5.324,5.3245,0,0,0,0,0,0,5.2441,5.2464,5.2658,5.2569,5.2594,5.2631,5.2685,5.2689,5.2723,5.2768,5.2774,5.2727,5.2815,5.2834,5.2942,5.3003,5.2895,5.2903,5.323,5.3237,5.3243,5.3306,0,0,0,0,0,0,5.2433,5.2462,5.251,5.2571,5.2598,5.2753,5.2689,5.2694,5.2738,5.2733,5.2796,5.2803,5.2814,5.293,5.2951,5.3013,5.2909,5.3225,5.3233,5.3241,5.3299,5.3314,5.3327,0,0,0,0,0,5.2424,5.2523,5.2513,5.2537,5.266,5.2756,5.2772,5.2782,5.2743,5.2792,5.2821,5.2801,5.2993,5.2941,5.2965,5.303,5.3221,5.3231,5.324,5.3293,5.3311,5.3326,0,0,0,0,0,0,5.2469,5.2531,5.2521,5.2642,5.2694,5.2751,5.2813,5.2801,5.2866,5.2858,5.2868,5.2882,5.2994,5.3023,5.2964,5.3157,5.3102,5.3116,5.3134,5.3151,5.3165,5.3156,5.2916,0,0,0,0,0,5.2493,5.2566,5.2617,5.2719,5.2746,5.2775,5.2818,5.2821,5.2875,5.2897,5.2934,5.2987,5.306,5.3107,5.3176,5.3303,5.3317,5.336,5.3374,5.3385,5.3397,5.3467,5.3487,5.3276,5.3275,5.3275,0,0,5.2543,5.2586,5.2632,5.2729,5.277,5.2846,5.2794,5.2876,5.2933,5.291,5.3015,5.3044,5.3104,5.3223,5.3277,5.325,5.3459,5.3397,5.3405,5.3412,5.3479,5.3499,5.3517,5.3282,5.3281,5.328,0,0,5.2674,5.2714,5.2804,5.2846,5.2909,5.2928,5.2949,5.3008,5.3027,5.3132,5.3117,5.3184,5.3309,5.3352,5.3391,5.354,5.3524,5.3562,5.3635,5.3703,5.3719,5.3734,5.3788,5.3807,5.3574,5.3574,5.3575,0,5.2729,5.2842,5.2852,5.2936,5.298,5.2963,5.3054,5.3095,5.3177,5.3207,5.3177,5.3333,5.3372,5.3501,5.3538,5.3569,5.3595,5.3555,5.3716,5.3731,5.3745,5.3796,5.3816,5.3579,5.3578,5.3578,5.3577,0,5.2907,5.2986,5.3052,5.3132,5.3183,5.327,5.3293,5.3343,5.3343,5.3365,5.3473,5.352,5.3599,5.363,5.363,5.3759,5.3741,5.3713,5.3658,5.3769,5.3818,5.3837,5.3585,5.3583,5.3582,5.3581,0,0,5.3069,5.3153,5.3177,5.3214,5.3282,5.3344,5.3431,5.3508,5.3551,5.3608,5.3682,5.3788,5.3763,5.3807,5.3812,5.3872,5.3987,5.3837,5.3839,5.3864,5.4134,5.4154,5.4176,5.3978,5.3981,5.3984,5.4129,0,5.3206,5.3359,5.337,5.3509,5.3583,5.3568,5.3644,5.3694,5.3718,5.3784,5.381,5.3885,5.3846,5.3873,5.3931,5.3961,5.4042,5.3951,5.4046,5.405,5.4031,5.4201,5.4223,5.4357,5.4147,5.4151,5.4153,0,5.3386,5.3449,5.3595,5.3654,5.3685,5.3753,5.3825,5.3888,5.3945,5.3958,5.4008,5.4005,5.4095,5.4037,5.4161,5.4099,5.4138,5.4159,5.4164,5.4174,5.4108,5.4215,5.4399,5.442,5.4183,5.418,5.4178,0,5.349,5.3611,5.3714,5.3746,5.3817,5.3865,5.3897,5.395,5.3996,5.4059,5.4089,5.4162,5.4202,5.4258,5.4275,5.4231,5.4399,5.4342,5.4412,5.4412,5.4448,5.4446,5.4641,5.4474,5.4474,5.4473,5.4473,0,5.3641,5.3731,5.3762,5.3825,5.3926,5.3938,5.4038,5.4067,5.4115,5.4184,5.4176,5.424,5.4259,5.4327,5.4341,5.4442,5.446,5.4473,5.4476,5.4474,5.4472,5.45,5.4491,5.4479,5.4478,5.4477,5.4476,0,5.3774,5.3798,5.391,5.3968,5.3985,5.4056,5.4106,5.4168,5.419,5.4278,5.4299,5.4334,5.4415,5.4437,5.4533,5.4543,5.4662,5.4656,5.4642,5.4642,5.4711,5.4705,5.4932,5.4962,5.4775,5.4777,5.4778,0,5.3869,5.3938,5.4004,5.405,5.4084,5.4158,5.4204,5.422,5.4269,5.434,5.4393,5.4472,5.4536,5.4665,5.4699,5.4773,5.4769,5.4844,5.478,5.4776,5.477,5.4766,5.4773,5.4855,5.4857,5.4859,5.486,0,5.4036,5.4045,5.4113,5.4186,5.4242,5.43,5.4355,5.4393,5.4416,5.4472,5.4554,5.4604,5.4703,5.4782,5.4857,5.489,5.488,5.488,5.49,5.4899,5.4889,5.4895,5.4675,5.4875,5.4873,5.4872,5.4872,5.4871,5.4153,5.4214,5.427,5.4346,5.439,5.4442,5.4503,5.4533,5.4602,5.4683,5.4688,5.4777,5.4833,5.4933,5.497,5.504,5.5018,5.5047,5.5054,5.5061,5.5067,5.4878,5.5054,5.5053,5.5053,5.5053,5.5052,0,5.4319,5.4355,5.4425,5.4503,5.4563,5.4549,5.461,5.4661,5.4739,5.4793,5.4856,5.4951,5.5028,5.5068,5.5145,5.5193,5.519,5.5213,5.5209,5.5217,5.5083,5.5057,5.5214,5.5214,5.5214,5.5214,5.5214,5.5214,5.4413,5.4515,5.4531,5.4655,5.4689,5.4777,5.4813,5.4861,5.4904,5.501,5.5074,5.51,5.5149,5.5229,5.5298,5.5308,5.5337,5.5362,5.537,5.5243,5.5226,5.5211,5.5187,5.5368,5.5368,5.5498,5.5499,5.55]},{"header":{"parameterUnit":"m.s-1","parameterCategory":1,"la1":30.2991,"la2":30.254,"lo1":-89.0895,"lo2":-89.0444,"dy":0.0017,"dx":0.0017,"nx":28,"ny":28,"refTime":"2024-02-11T09:00:00:Z","depth":0,"parameterNumber":3,"parameterNumberName":"V-component_of_WINDS"},"data":[0,0,0,0,0,0,0,0,0,0,0,0,0,0,0,0,0,0,0,0,0,0,0,0,0,0,0,0,0,0,0,0,0,0,0,0,0,0,0,0,0,0,0,0,0,0,0,0,0,0,0,0,0,0,0,0,0,0,-4.9195,-4.9196,0,-4.9314,-4.9316,-4.9317,-4.9302,-4.93,-4.9298,-4.9296,-4.9418,-4.9423,-4.9427,0,0,0,0,0,0,0,0,0,0,0,0,0,-4.8954,-4.8959,-4.9195,-4.9196,-4.9198,-4.9314,-4.9316,-4.9317,-4.9302,-4.93,-4.9298,-4.9295,-4.9416,-4.9422,-4.9428,0,0,0,0,0,0,0,0,0,0,0,0,0,-4.9065,-4.896,-4.9195,-4.9204,-4.9206,-4.9314,-4.9316,-4.9318,-4.9303,-4.93,-4.9297,-4.9294,-4.9414,-4.9421,-4.9429,-4.9534,0,0,-4.9452,-4.9455,0,0,0,0,0,0,0,0,-4.9058,-4.9073,-4.9201,-4.9204,-4.9206,-4.929,-4.9275,-4.939,-4.9303,-4.9266,-4.9296,-4.9293,-4.9378,-4.9388,-4.9417,-4.9539,-4.9545,-4.9453,-4.9457,-4.946,-4.9463,0,0,0,0,0,0,0,-4.9051,-4.9068,-4.9242,-4.9203,-4.9206,-4.9203,-4.9215,-4.9297,-4.9337,-4.9269,-4.9268,-4.9283,-4.9378,-4.9409,-4.9419,-4.9546,-4.9452,-4.9459,-4.9464,-4.9467,-4.9762,-4.9765,0,0,0,0,0,0,-4.9041,-4.9062,-4.9238,-4.9246,-4.9124,-4.921,-4.9223,-4.9266,-4.9336,-4.9344,-4.9285,-4.9282,-4.9398,-4.9411,-4.9424,-4.9551,-4.946,-4.9467,-4.9472,-4.9758,-4.9762,-4.9766,0,0,0,0,0,0,-4.9035,-4.9056,-4.9233,-4.9154,-4.9176,-4.9217,-4.9265,-4.927,-4.9301,-4.9348,-4.9355,-4.931,-4.9396,-4.9413,-4.9507,-4.9555,-4.9471,-4.9478,-4.9754,-4.976,-4.9764,-4.9807,0,0,0,0,0,0,-4.9029,-4.9055,-4.9095,-4.9155,-4.918,-4.9315,-4.9268,-4.9275,-4.9314,-4.9311,-4.9373,-4.938,-4.9395,-4.9495,-4.9514,-4.9564,-4.9484,-4.975,-4.9757,-4.9763,-4.9802,-4.9813,-4.9823,0,0,0,0,0,-4.902,-4.9102,-4.9097,-4.9118,-4.9231,-4.9317,-4.9332,-4.9348,-4.9318,-4.9359,-4.9389,-4.9378,-4.9547,-4.9505,-4.9526,-4.9579,-4.9747,-4.9755,-4.9762,-4.9797,-4.9811,-4.9823,0,0,0,0,0,0,-4.9047,-4.911,-4.9105,-4.9209,-4.9258,-4.9315,-4.9367,-4.9362,-4.942,-4.9415,-4.9432,-4.9446,-4.9541,-4.9569,-4.9521,-4.9685,-4.9643,-4.9655,-4.9662,-4.9676,-4.9686,-4.9677,-4.949,0,0,0,0,0,-4.9065,-4.9129,-4.9181,-4.9268,-4.9293,-4.9326,-4.9364,-4.9372,-4.9423,-4.9444,-4.9481,-4.9531,-4.9595,-4.9637,-4.9699,-4.9806,-4.9819,-4.9853,-4.9863,-4.9872,-4.9882,-4.9941,-4.9956,-4.979,-4.979,-4.979,0,0,-4.9102,-4.9145,-4.9185,-4.9274,-4.9313,-4.938,-4.9343,-4.9415,-4.9465,-4.9454,-4.9545,-4.9574,-4.9631,-4.9732,-4.9778,-4.9759,-4.9931,-4.9881,-4.9888,-4.9893,-4.995,-4.9966,-4.998,-4.9795,-4.9794,-4.9794,0,0,-4.9205,-4.9244,-4.932,-4.936,-4.942,-4.9441,-4.946,-4.9518,-4.9537,-4.9628,-4.9622,-4.9681,-4.9792,-4.9833,-4.9868,-4.9988,-4.998,-5.0007,-5.0062,-5.012,-5.0133,-5.0145,-5.0187,-5.0202,-5.0017,-5.0017,-5.0017,0,-4.9244,-4.9345,-4.936,-4.9433,-4.9473,-4.9467,-4.9545,-4.9583,-4.966,-4.9687,-4.9665,-4.9804,-4.9842,-4.9952,-4.9981,-5.001,-5.0032,-5.0,-5.013,-5.0142,-5.0153,-5.0194,-5.021,-5.002,-5.002,-5.002,-5.0019,0,-4.939,-4.946,-4.9514,-4.9589,-4.9635,-4.971,-4.9737,-4.9782,-4.9786,-4.981,-4.9903,-4.9949,-5.002,-5.0047,-5.0052,-5.0159,-5.0145,-5.0126,-5.0084,-5.0171,-5.021,-5.0226,-5.0025,-5.0024,-5.0023,-5.0022,0,0,-4.9513,-4.9595,-4.9615,-4.9649,-4.9715,-4.9769,-4.9844,-4.9914,-4.9952,-5.0005,-5.0068,-5.0162,-5.0146,-5.0186,-5.0195,-5.0246,-5.0337,-5.022,-5.0222,-5.0241,-5.0458,-5.0472,-5.049,-5.0333,-5.0336,-5.0338,-5.0454,0,-4.9622,-4.9754,-4.9771,-4.9889,-4.9954,-4.995,-5.0015,-5.0062,-5.0087,-5.0145,-5.0172,-5.0239,-5.0211,-5.0236,-5.0285,-5.0316,-5.0381,-5.0308,-5.0392,-5.0394,-5.0377,-5.051,-5.0525,-5.0632,-5.0469,-5.0471,-5.0473,0,-4.9767,-4.9825,-4.9949,-5.0006,-5.0034,-5.0092,-5.0158,-5.0214,-5.0268,-5.0282,-5.0328,-5.0331,-5.0408,-5.0364,-5.0471,-5.0421,-5.0456,-5.0476,-5.0481,-5.0489,-5.0439,-5.0522,-5.0666,-5.0682,-5.0497,-5.0495,-5.0494,0,-4.9844,-4.9953,-5.0041,-5.0071,-5.0139,-5.0181,-5.0211,-5.0262,-5.0303,-5.0361,-5.0388,-5.0453,-5.0489,-5.054,-5.0561,-5.0527,-5.0667,-5.0625,-5.0681,-5.0681,-5.0711,-5.0709,-5.0862,-5.0734,-5.0734,-5.0733,-5.0733,0,-4.9964,-5.0041,-5.0077,-5.0131,-5.0217,-5.0235,-5.0319,-5.0348,-5.0394,-5.0454,-5.0454,-5.0511,-5.0535,-5.0595,-5.0612,-5.0698,-5.0715,-5.0728,-5.0732,-5.0728,-5.0727,-5.0752,-5.0745,-5.0738,-5.0737,-5.0736,-5.0735,0,-5.0065,-5.0092,-5.0188,-5.0246,-5.0262,-5.0323,-5.0372,-5.0425,-5.0449,-5.0525,-5.0544,-5.0582,-5.0653,-5.0679,-5.0765,-5.0776,-5.0876,-5.0874,-5.0858,-5.0859,-5.0914,-5.0909,-5.109,-5.1115,-5.0969,-5.0971,-5.0972,0,-5.014,-5.0198,-5.0262,-5.0303,-5.0335,-5.04,-5.0442,-5.0463,-5.0506,-5.0573,-5.0618,-5.0688,-5.0746,-5.086,-5.0895,-5.0961,-5.096,-5.1019,-5.097,-5.0964,-5.0961,-5.0957,-5.0963,-5.1028,-5.1029,-5.103,-5.1031,0,-5.027,-5.0281,-5.0341,-5.0407,-5.0458,-5.0511,-5.0562,-5.0595,-5.0623,-5.0673,-5.0745,-5.079,-5.0879,-5.0949,-5.1017,-5.1048,-5.1045,-5.1047,-5.1063,-5.106,-5.1049,-5.1056,-5.0883,-5.1042,-5.1041,-5.104,-5.104,-5.1039,-5.036,-5.0412,-5.0465,-5.0533,-5.0574,-5.0622,-5.0675,-5.0706,-5.0767,-5.084,-5.0849,-5.0927,-5.098,-5.1071,-5.1105,-5.1167,-5.1151,-5.1175,-5.1181,-5.1187,-5.1191,-5.1039,-5.1179,-5.1179,-5.1179,-5.1179,-5.1178,0,-5.049,-5.0525,-5.0587,-5.0659,-5.0712,-5.0705,-5.0761,-5.0806,-5.0875,-5.0925,-5.0982,-5.1066,-5.1134,-5.1175,-5.1243,-5.1285,-5.1285,-5.1302,-5.1299,-5.1307,-5.1201,-5.118,-5.1301,-5.1301,-5.1301,-5.1301,-5.1301,-5.1301,-5.0565,-5.0652,-5.067,-5.0778,-5.0811,-5.0888,-5.0921,-5.0966,-5.1005,-5.1099,-5.1156,-5.1182,-5.1228,-5.13,-5.1363,-5.1373,-5.1398,-5.1417,-5.1426,-5.1326,-5.1314,-5.1302,-5.1282,-5.1422,-5.1422,-5.1526,-5.1527,-5.1528]}]]